Location: Seattle
(47.6062°N, 122.3321°W)
Time: 22:30:47
(UTC-07:00)

ISS - Pass Details

Date: 19 May 2015
Orbit: 411 x 421 km, 51.6° (Epoch: 16 October)

Event Time Altitude Azimuth Distance (km) Brightness Sun altitude
Exits shadow 02:45:15 12° 288° (WNW) 1,409 -1.2 -19.0°
Maximum altitude 02:48:13 40° 358° (N) 644 -2.4 -18.8°
Drops below altitude 10° 02:51:28 10° 70° (ENE) 1,525 -0.3 -18.6°
Sets 02:53:40 0° 78° (ENE) 2,395 0.7 -18.4°
